This demonstration page uses our WeatherBlox Daily Observations layout. Learn more.

Hourly Observations for September 16, 2020

Temp ( °F °C ) Dew Point ( °F °C ) Humidity (%) Winds ( mph kmh ) Pressure ( in mb ) Visibility ( mi km ) Precip ( " mm )
12:15 am 00:15 Clear 48 9 48 9 100 100 Calm 30.31 1026 10 16.0934 0 0
12:35 am 00:35 Clear 46 8 46 8 100 100 Calm 30.3 1026 10 16.0934 0 0
12:55 am 00:55 Clear 46 8 46 8 100 100 Calm 30.29 1026 10 16.0934 0 0
1:15 am 01:15 Clear 46 8 46 8 100 100 Calm 30.29 1026 10 16.0934 0 0
1:35 am 01:35 Clear 46 8 46 8 100 100 Calm 30.29 1026 10 16.0934 0 0
1:55 am 01:55 Clear 46 8 46 8 100 100 Calm 30.29 1026 10 16.0934 0 0
2:15 am 02:15 Clear 46 8 46 8 100 100 Calm 30.29 1026 10 16.0934 0 0
2:35 am 02:35 Clear 45 7 45 7 100 100 Calm 30.29 1026 10 16.0934 0 0
2:55 am 02:55 Clear 46 8 46 8 100 100 Calm 30.28 1025 10 16.0934 0 0
3:15 am 03:15 Clear 45 7 45 7 100 100 Calm 30.28 1025 10 16.0934 0 0
3:35 am 03:35 Clear 45 7 45 7 100 100 Calm 30.28 1025 10 16.0934 0 0
3:55 am 03:55 Clear 45 7 45 7 100 100 Calm 30.28 1025 10 16.0934 0 0
4:15 am 04:15 Clear 45 7 45 7 100 100 Calm 30.27 1025 10 16.0934 0 0
4:35 am 04:35 Clear 45 7 45 7 100 100 Calm 30.27 1025 10 16.0934 0 0
4:55 am 04:55 Clear 45 7 45 7 100 100 Calm 30.27 1025 10 16.0934 0 0
5:15 am 05:15 Clear 43 6 43 6 100 100 Calm 30.27 1025 10 16.0934 0 0
5:35 am 05:35 Clear 43 6 43 6 100 100 Calm 30.26 1025 10 16.0934 0 0
5:55 am 05:55 Clear 43 6 43 6 100 100 Calm 30.26 1025 10 16.0934 0 0
6:15 am 06:15 Partly Cloudy 43 6 43 6 100 100 Calm 30.26 1025 10 16.0934 0 0
6:35 am 06:35 Mostly Cloudy 43 6 43 6 100 100 Calm 30.27 1025 10 16.0934 0 0
7:55 am 07:55 Partly Cloudy 45 7 45 7 100 100 Calm 30.27 1025 10 16.0934 0 0
9:35 am 09:35 Cloudy 52 11 50 10 94 94 Calm 30.26 1025 10 16.0934 0 0
9:55 am 09:55 Cloudy 54 12 52 11 94 94 Calm 30.26 1025 10 16.0934 0 0
10:15 am 10:15 Cloudy 54 12 52 11 94 94 Calm 30.26 1025 10 16.0934 0 0
10:55 am 10:55 Cloudy 59 15 54 12 82 82 S 3 6 30.26 1025 10 16.0934 0 0
11:15 am 11:15 Partly Cloudy 61 16 54 12 77 77 SSE 5 7 30.26 1025 10 16.0934 0 0
11:35 am 11:35 Partly Cloudy 63 17 55 13 77 77 SSW 6 9 30.25 1024 10 16.0934 0 0
11:55 am 11:55 Partly Cloudy 63 17 55 13 77 77 S 10 17 30.24 1024 10 16.0934 0 0
12:15 pm 12:15 Mostly Cloudy 64 18 55 13 73 73 S 10 17 30.23 1024 10 16.0934 0 0
12:35 pm 12:35 Mostly Cloudy 64 18 54 12 68 68 SSW 13 20 30.22 1024 10 16.0934 0 0
12:55 pm 12:55 Mostly Cloudy 66 19 54 12 64 64 S 12 19 30.22 1023 10 16.0934 0 0
1:15 pm 13:15 Mostly Cloudy 66 19 54 12 64 64 SSW 8 13 30.21 1023 10 16.0934 0 0
1:35 pm 13:35 Mostly Cloudy 68 20 54 12 60 60 S 7 11 30.2 1023 10 16.0934 0 0
1:55 pm 13:55 Partly Cloudy 70 21 54 12 57 57 S 8 13 30.19 1022 10 16.0934 0 0
2:15 pm 14:15 Mostly Cloudy 70 21 55 13 60 60 SSE 9 15 30.19 1022 10 16.0934 0 0
2:35 pm 14:35 Mostly Cloudy 70 21 54 12 57 57 S 10 17 30.18 1022 10 16.0934 0 0
2:55 pm 14:55 Mostly Cloudy 70 21 54 12 57 57 S 12 19 30.17 1022 10 16.0934 0 0
3:15 pm 15:15 Partly Cloudy 70 21 54 12 57 57 S 9 15 30.16 1021 10 16.0934 0 0
3:35 pm 15:35 Partly Cloudy 70 21 55 13 60 60 SW 12 19 30.16 1021 10 16.0934 0 0
3:55 pm 15:55 Partly Cloudy 72 22 55 13 57 57 SSW 12 19 30.15 1021 10 16.0934 0 0
4:15 pm 16:15 Sunny 72 22 55 13 57 57 S 9 15 30.15 1021 10 16.0934 0 0
4:35 pm 16:35 Sunny 72 22 55 13 57 57 S 8 13 30.15 1021 10 16.0934 0 0
4:55 pm 16:55 Partly Cloudy 72 22 55 13 57 57 S 10 17 30.14 1021 10 16.0934 0 0
5:15 pm 17:15 Partly Cloudy 70 21 57 14 64 64 S 8 13 30.14 1021 10 16.0934 0 0
5:35 pm 17:35 Partly Cloudy 70 21 57 14 64 64 SSW 7 11 30.13 1020 10 16.0934 0 0
5:55 pm 17:55 Sunny 70 21 55 13 60 60 S 8 13 30.13 1020 10 16.0934 0 0
6:15 pm 18:15 Sunny 68 20 55 13 64 64 S 6 9 30.13 1020 10 16.0934 0 0
6:35 pm 18:35 Sunny 68 20 57 14 69 69 S 5 7 30.12 1020 10 16.0934 0 0
6:55 pm 18:55 Sunny 66 19 57 14 73 73 S 5 7 30.12 1020 10 16.0934 0 0
7:15 pm 19:15 Sunny 64 18 57 14 78 78 Calm 30.12 1020 10 16.0934 0 0
7:35 pm 19:35 Clear 63 17 57 14 83 83 SSW 3 6 30.13 1020 10 16.0934 0 0
7:55 pm 19:55 Clear 63 17 57 14 83 83 SSW 3 6 30.13 1020 10 16.0934 0 0
8:15 pm 20:15 Clear 63 17 57 14 83 83 SSW 3 6 30.14 1021 10 16.0934 0 0
8:35 pm 20:35 Clear 61 16 57 14 88 88 SW 3 6 30.14 1021 10 16.0934 0 0
8:55 pm 20:55 Clear 61 16 55 13 83 83 Calm 30.15 1021 10 16.0934 0 0
9:15 pm 21:15 Clear 59 15 57 14 94 94 Calm 30.15 1021 10 16.0934 0 0
9:35 pm 21:35 Clear 59 15 57 14 94 94 Calm 30.15 1021 10 16.0934 0 0
9:55 pm 21:55 Clear 59 15 55 13 88 88 Calm 30.15 1021 10 16.0934 0 0
10:15 pm 22:15 Clear 55 13 55 13 100 100 Calm 30.15 1021 10 16.0934 0 0
10:35 pm 22:35 Clear 55 13 55 13 100 100 Calm 30.15 1021 10 16.0934 0 0
10:55 pm 22:55 Clear 54 12 54 12 100 100 Calm 30.15 1021 10 16.0934 0 0
11:15 pm 23:15 Clear 54 12 54 12 100 100 SW 3 6 30.14 1021 10 16.0934 0 0
11:35 pm 23:35 Clear 55 13 55 13 100 100 Calm 30.14 1021 10 16.0934 0 0
11:55 pm 23:55 Clear 54 12 54 12 100 100 Calm 30.13 1020 10 16.0934 0 0

Powered by AerisWeather